Litchfield, IL

9:01 PM CST on December 04, 2016 (GMT -0600)
Litchfield

Weather History for K3LF - February, 2013

Change the Weather History Date:

Thursday, February 21, 2013

  Actual Average (KALN) Record (KALN)
Temperature  
Mean Temperature 25 °F -  
Max Temperature 31 °F 43 °F 113 °F (2000)
Min Temperature 19 °F 29 °F 14 °F (2009)
Degree Days  
Heating Degree Days 40    
Moisture  
Dew Point 22 °F    
Average Humidity 88    
Maximum Humidity 98    
Minimum Humidity 72    
Precipitation  
Precipitation 0.19 in - - ()
Sea Level Pressure  
Sea Level Pressure 30.10 in    
Wind  
Wind Speed 9 mph (East)    
Max Wind Speed 23 mph    
Max Gust Speed 34 mph    
Visibility 7 miles    
Events Snow    
Averages and records for this station are not official NWS values.
T = Trace of Precipitation, MM = Missing Value Source: NWS Daily Summary

Daily Weather History Graph

Daily Weather History Graph

Search for Another Location

Airport or City:

Trip Planner

Search our weather history database for the weather conditions in past years. The results will help you decide how hot, cold, wet, or windy it might be!

Date:

Astronomy

Feb. 21, 2013 Rise Set
Actual Time 6:42 AM CST 5:42 PM CST
Civil Twilight 6:15 AM CST 6:10 PM CST
Nautical Twilight 5:43 AM CST 6:41 PM CST
Astronomical Twilight 5:13 AM CST 7:12 PM CST
Moon 1:58 PM CST (2/21) 3:45 AM CST (2/21)
Length of Visible Light 11h 54m
Length of Day
11h 00m
Waxing Gibbous, 84% of the Moon is Illuminated
Feb 21
Waxing Gibbous
Feb 25
Full
Mar 4
Last Quarter
Mar 11
New
Mar 19
First Quarter

Hourly Weather History & Observations

Time (CST) Temp. Windchill Dew Point Humidity Pressure Visibility Wind Dir Wind Speed Gust Speed Precip Events Conditions
12:15 AM 19.9 °F 13.4 °F 15.1 °F 81% 30.31 in 10.0 mi NE 4.6 mph - N/A   Clear
12:35 AM 20.3 °F 12.5 °F 15.6 °F 82% 30.30 in 10.0 mi NE 5.8 mph - N/A   Clear
12:55 AM 20.3 °F 13.8 °F 15.8 °F 83% 30.31 in 10.0 mi NE 4.6 mph - N/A   Clear
1:15 AM 20.5 °F - 16.2 °F 83% 30.32 in 10.0 mi Calm Calm - N/A   Clear
1:35 AM 21.0 °F - 16.2 °F 81% 30.33 in 10.0 mi Calm Calm - N/A   Clear
1:55 AM 20.8 °F 14.4 °F 16.0 °F 81% 30.31 in 10.0 mi NE 4.6 mph - N/A   Clear
2:15 AM 20.1 °F 12.3 °F 16.7 °F 87% 30.30 in 10.0 mi NE 5.8 mph - N/A   Clear
2:35 AM 19.9 °F 13.4 °F 17.1 °F 89% 30.30 in 10.0 mi ENE 4.6 mph - N/A   Clear
2:55 AM 19.4 °F 12.8 °F 16.7 °F 89% 30.30 in 10.0 mi ENE 4.6 mph - N/A   Clear
3:15 AM 20.1 °F 11.3 °F 17.6 °F 90% 30.28 in 10.0 mi NE 6.9 mph - N/A   Clear
3:35 AM 20.3 °F 11.5 °F 17.8 °F 90% 30.28 in 10.0 mi ENE 6.9 mph - N/A   Clear
3:55 AM 20.3 °F 10.6 °F 17.6 °F 89% 30.27 in 10.0 mi ENE 8.1 mph - N/A   Clear
4:15 AM 20.1 °F 10.3 °F 17.6 °F 90% 30.27 in 10.0 mi ENE 8.1 mph - N/A   Clear
4:35 AM 19.8 °F 11.9 °F 17.4 °F 91% 30.28 in 10.0 mi ENE 5.8 mph - N/A   Clear
4:55 AM 19.9 °F 9.3 °F 17.4 °F 90% 30.24 in 10.0 mi ENE 9.2 mph - N/A   Clear
5:15 AM 19.9 °F 8.6 °F 17.4 °F 90% 30.23 in 10.0 mi East 10.4 mph - N/A   Clear
5:35 AM 19.9 °F 10.1 °F 17.2 °F 89% 30.25 in 10.0 mi East 8.1 mph - N/A   Clear
5:55 AM 20.3 °F 10.6 °F 17.4 °F 89% 30.26 in 10.0 mi East 8.1 mph - N/A   Clear
6:15 AM 20.3 °F 8.3 °F 17.4 °F 89% 30.25 in 10.0 mi ENE 11.5 mph 16.1 mph N/A   Clear
6:35 AM 20.7 °F 11.0 °F 17.2 °F 87% 30.26 in 10.0 mi East 8.1 mph - N/A   Clear
6:55 AM 20.3 °F 10.6 °F 17.2 °F 88% 30.26 in 10.0 mi East 8.1 mph - N/A   Clear
7:15 AM 20.7 °F 9.5 °F 17.4 °F 87% 30.26 in 10.0 mi East 10.4 mph - N/A   Clear
7:35 AM 21.6 °F 10.6 °F 17.8 °F 85% 30.26 in 10.0 mi East 10.4 mph - N/A   Clear
7:55 AM 22.1 °F 9.5 °F 18.3 °F 85% 30.26 in 10.0 mi ENE 13.8 mph 19.6 mph N/A   Clear
8:15 AM 22.1 °F 11.3 °F 17.8 °F 83% 30.27 in 10.0 mi East 10.4 mph - N/A   Mostly Cloudy
8:35 AM 22.6 °F 9.2 °F 18.1 °F 83% 30.25 in 10.0 mi East 16.1 mph - N/A   Scattered Clouds
8:55 AM 23.0 °F 11.1 °F 18.5 °F 83% 30.23 in 10.0 mi East 12.7 mph 19.6 mph N/A   Clear
9:15 AM 23.7 °F 10.5 °F 18.5 °F 80% 30.22 in 10.0 mi East 16.1 mph 21.9 mph N/A   Clear
9:35 AM 24.3 °F 11.7 °F 18.5 °F 79% 30.22 in 10.0 mi East 15.0 mph - N/A   Mostly Cloudy
10:15 AM 24.6 °F 12.2 °F 18.5 °F 78% 30.20 in 10.0 mi East 15.0 mph 19.6 mph N/A   Mostly Cloudy
10:35 AM 24.6 °F 13.2 °F 17.8 °F 75% 30.18 in 10.0 mi East 12.7 mph - N/A   Overcast
10:55 AM 24.6 °F 10.9 °F 17.6 °F 75% 30.13 in 10.0 mi East 18.4 mph 25.3 mph N/A   Overcast
11:15 AM 24.8 °F 13.4 °F 17.6 °F 74% 30.13 in 10.0 mi ENE 12.7 mph 16.1 mph N/A   Overcast
11:35 AM 25.2 °F 14.4 °F 17.4 °F 72% 30.14 in 10.0 mi East 11.5 mph - N/A   Overcast
11:55 AM 25.2 °F 12.4 °F 17.6 °F 73% 30.09 in 10.0 mi East 16.1 mph 20.7 mph N/A   Overcast
12:15 PM 25.2 °F 14.4 °F 17.6 °F 73% 30.11 in 10.0 mi East 11.5 mph - N/A   Overcast
12:35 PM 25.3 °F 17.6 °F 17.6 °F 72% 30.14 in 10.0 mi NE 6.9 mph - N/A Snow Light Snow
1:15 PM 23.7 °F 14.7 °F 21.4 °F 91% 30.14 in 0.5 mi NE 8.1 mph - N/A Snow Snow
1:35 PM 23.5 °F 12.4 °F 21.9 °F 94% 30.12 in 0.2 mi NNE 11.5 mph - N/A Snow Snow
1:55 PM 23.5 °F 15.4 °F 22.1 °F 94% 30.15 in 0.2 mi NE 6.9 mph - N/A Snow Snow
2:15 PM 23.7 °F 13.3 °F 22.1 °F 94% 30.13 in 0.2 mi ENE 10.4 mph - 0.01 in Snow Heavy Snow
2:35 PM 23.7 °F 14.7 °F 22.1 °F 94% 30.12 in 0.2 mi ENE 8.1 mph - 0.03 in Snow Heavy Snow
2:55 PM 23.7 °F 11.0 °F 22.1 °F 94% 30.07 in 0.2 mi ENE 15.0 mph - 0.05 in Snow Heavy Snow
3:15 PM 23.7 °F 10.1 °F 22.1 °F 94% 30.05 in 0.2 mi East 17.3 mph 21.9 mph 0.01 in Snow Snow
3:35 PM 23.9 °F 9.9 °F 22.6 °F 95% 30.03 in 0.2 mi East 18.4 mph 24.2 mph 0.02 in Snow Snow
3:55 PM 24.4 °F 9.2 °F 22.8 °F 94% 29.98 in 0.2 mi East 23.0 mph 29.9 mph 0.02 in Snow Snow
4:15 PM 24.8 °F 11.1 °F 23.0 °F 93% 29.97 in 0.8 mi East 18.4 mph 28.8 mph N/A Snow Light Snow
4:35 PM 25.5 °F 10.6 °F 23.4 °F 92% 29.94 in 3.0 mi East 23.0 mph 34.5 mph 0.01 in   Overcast
5:15 PM 26.4 °F 11.8 °F 24.4 °F 92% 29.87 in 3.0 mi East 23.0 mph 32.2 mph N/A   Overcast
5:35 PM 27.3 °F 14.0 °F 25.7 °F 94% 29.88 in 3.0 mi East 19.6 mph 27.6 mph N/A   Overcast
5:55 PM 28.0 °F 15.7 °F 26.2 °F 93% 29.87 in 10.0 mi East 17.3 mph 25.3 mph N/A   Overcast
6:15 PM 28.6 °F 17.7 °F 26.6 °F 92% 29.90 in 10.0 mi ESE 13.8 mph 24.2 mph N/A   Overcast
6:35 PM 29.1 °F 20.0 °F 27.3 °F 93% 29.91 in 10.0 mi ESE 10.4 mph - N/A   Overcast
6:55 PM 29.7 °F 16.7 °F 27.9 °F 93% 29.87 in 5.0 mi ESE 20.7 mph 25.3 mph 0.01 in   Overcast
7:15 PM 30.0 °F 19.1 °F 28.4 °F 94% 29.88 in 3.0 mi ESE 15.0 mph 19.6 mph 0.01 in   Overcast
7:35 PM 30.6 °F 20.2 °F 29.3 °F 95% 29.90 in 4.0 mi ESE 13.8 mph 18.4 mph 0.04 in   Overcast
7:55 PM 30.9 °F 21.2 °F 29.3 °F 94% 29.86 in 3.0 mi ESE 12.7 mph 21.9 mph 0.08 in   Overcast
8:15 PM 31.1 °F 21.9 °F 29.5 °F 94% 29.87 in 7.0 mi SE 11.5 mph - 0.01 in   Overcast
8:35 PM 31.1 °F 20.9 °F 28.9 °F 92% 29.87 in 7.0 mi ESE 13.8 mph 18.4 mph 0.02 in   Overcast
8:55 PM 30.9 °F 21.2 °F 28.9 °F 92% 29.86 in 7.0 mi ESE 12.7 mph 19.6 mph 0.02 in   Overcast
9:15 PM 30.9 °F 20.2 °F 28.9 °F 92% 29.85 in 7.0 mi SE 15.0 mph 19.6 mph N/A   Overcast
9:35 PM 30.9 °F 22.8 °F 29.1 °F 93% 29.86 in 5.0 mi SE 9.2 mph - N/A   Overcast
9:55 PM 31.1 °F 23.1 °F 29.8 °F 95% 29.86 in 2.0 mi SE 9.2 mph - N/A   Overcast
10:15 PM 30.9 °F 22.2 °F 30.0 °F 96% 29.85 in 2.0 mi SE 10.4 mph - N/A   Overcast
10:35 PM 31.1 °F 22.4 °F 30.2 °F 96% 29.84 in 2.0 mi SE 10.4 mph - N/A   Overcast
10:55 PM 31.1 °F 23.7 °F 30.2 °F 96% 29.83 in 2.5 mi SE 8.1 mph - N/A   Overcast
11:15 PM 31.1 °F 24.5 °F 30.2 °F 96% 29.83 in 3.0 mi SSE 6.9 mph - N/A   Overcast
11:35 PM 31.1 °F 25.4 °F 30.2 °F 96% 29.83 in 2.5 mi SSE 5.8 mph - N/A   Overcast
11:55 PM 31.1 °F 24.5 °F 30.6 °F 98% 29.82 in 4.0 mi SE 6.9 mph - N/A   Overcast